| time (UTC) | temp C | wind direction | speed KPH | gust KPH | rain 1hr cm | rain 24hr cm | rain mn cm | humidity % | barometer mb |
| 20260505224600 | 20 | 245 | 0.0 | 1.6 | 0.00 | 1.42 | 0.05 | 61 | 1015.6 |
| 20260505223059 | 20 | 132 | 0.0 | 4.8 | 0.00 | 1.42 | 0.05 | 61 | 1015.7 |
| 20260505221559 | 20 | 69 | 0.0 | 4.8 | 0.00 | 1.42 | 0.05 | 61 | 1015.9 |
| 20260505220058 | 19 | 82 | 1.6 | 4.8 | 0.00 | 1.42 | 0.05 | 62 | 1016.0 |
| 20260505214624 | 19 | 84 | 1.6 | 11.3 | 0.00 | 1.42 | 0.05 | 62 | 1016.1 |
| 20260505213103 | 20 | 86 | 0.0 | 4.8 | 0.00 | 1.42 | 0.05 | 61 | 1016.2 |
| 20260505211554 | 19 | 121 | 0.0 | 6.4 | 0.00 | 1.42 | 0.05 | 61 | 1016.2 |
| 20260505210058 | 19 | 106 | 1.6 | 9.7 | 0.00 | 1.42 | 0.05 | 63 | 1016.2 |
| 20260505204558 | 18 | 197 | 1.6 | 4.8 | 0.00 | 1.42 | 0.05 | 64 | 1016.3 |
| 20260505203053 | 18 | 273 | 0.0 | 6.4 | 0.00 | 1.42 | 0.05 | 66 | 1016.4 |
| 20260505201553 | 18 | 121 | 1.6 | 4.8 | 0.00 | 1.42 | 0.05 | 65 | 1016.4 |
| 20260505200100 | 18 | 10 | 0.0 | 4.8 | 0.00 | 1.42 | 0.05 | 66 | 1016.5 |
| 20260505194549 | 18 | 107 | 0.0 | 6.4 | 0.00 | 1.42 | 0.05 | 68 | 1016.6 |
| 20260505193048 | 17 | 292 | 0.0 | 3.2 | 0.00 | 1.42 | 0.05 | 70 | 1016.5 |
| 20260505191538 | 17 | 275 | 0.0 | 3.2 | 0.00 | 1.42 | 0.05 | 71 | 1016.7 |
| 20260505190039 | 16 | 306 | 1.6 | 6.4 | 0.00 | 1.42 | 0.05 | 73 | 1016.7 |
| 20260505184532 | 16 | 71 | 1.6 | 4.8 | 0.00 | 1.45 | 0.05 | 74 | 1016.6 |
| 20260505183030 | 16 | 119 | 0.0 | 0.0 | 0.00 | 1.45 | 0.05 | 76 | 1016.6 |
| 20260505181528 | 16 | 200 | 0.0 | 0.0 | 0.00 | 1.45 | 0.05 | 77 | 1016.5 |
| 20260505180050 | 15 | 71 | 0.0 | 6.4 | 0.00 | 1.45 | 0.05 | 79 | 1016.4 |
| 20260505174546 | 15 | 290 | 0.0 | 0.0 | 0.00 | 1.45 | 0.05 | 81 | 1016.4 |
| 20260505173025 | 15 | 135 | 0.0 | 1.6 | 0.00 | 1.45 | 0.05 | 80 | 1016.3 |
| 20260505171523 | 14 | 12 | 0.0 | 3.2 | 0.00 | 1.45 | 0.05 | 82 | 1016.3 |
| 20260505170018 | 14 | 16 | 0.0 | 6.4 | 0.00 | 1.45 | 0.05 | 83 | 1016.3 |
| 20260505164516 | 13 | 12 | 1.6 | 6.4 | 0.00 | 1.45 | 0.05 | 85 | 1016.3 |
| 20260505163019 | 13 | 13 | 3.2 | 9.7 | 0.00 | 1.45 | 0.05 | 86 | 1016.2 |
| 20260505161510 | 13 | 12 | 0.0 | 9.7 | 0.00 | 1.45 | 0.05 | 87 | 1016.1 |
| 20260505153004 | 12 | 119 | 1.6 | 11.3 | 0.00 | 1.45 | 0.05 | 89 | 1016.0 |
| 20260505151502 | 12 | 130 | 1.6 | 11.3 | 0.00 | 1.45 | 0.05 | 90 | 1015.8 |
| 20260505140107 | 12 | 159 | 1.6 | 12.9 | 0.00 | 1.45 | 0.05 | 91 | 1015.3 |
| 20260505124554 | 11 | 152 | 0.0 | 6.4 | 0.00 | 1.45 | 0.05 | 92 | 1014.8 |
| 20260505123101 | 11 | 150 | 0.0 | 8.0 | 0.00 | 1.45 | 0.05 | 92 | 1014.8 |
| 20260505121553 | 11 | 130 | 3.2 | 8.0 | 0.00 | 1.45 | 0.05 | 92 | 1014.8 |
| 20260505120052 | 11 | 132 | 1.6 | 8.0 | 0.00 | 1.45 | 0.05 | 92 | 1014.8 |
| 20260505114550 | 11 | 127 | 1.6 | 8.0 | 0.00 | 1.45 | 0.05 | 92 | 1014.9 |
| 20260505113101 | 11 | 157 | 0.0 | 8.0 | 0.00 | 1.45 | 0.05 | 92 | 1015.0 |
| 20260505111549 | 11 | 155 | 3.2 | 8.0 | 0.00 | 1.45 | 0.05 | 92 | 1015.1 |
| 20260505101545 | 11 | 139 | 3.2 | 8.0 | 0.00 | 1.45 | 0.05 | 92 | 1015.1 |
| 20260505100050 | 11 | 165 | 1.6 | 11.3 | 0.00 | 1.45 | 0.05 | 92 | 1015.0 |
| 20260505094545 | 11 | 169 | 1.6 | 8.0 | 0.00 | 1.45 | 0.05 | 92 | 1015.1 |
| 20260505093042 | 11 | 145 | 0.0 | 6.4 | 0.00 | 1.45 | 0.05 | 92 | 1015.4 |
| 20260505091555 | 11 | 139 | 0.0 | 9.7 | 0.00 | 1.45 | 0.05 | 92 | 1015.4 |
| 20260505090043 | 11 | 134 | 3.2 | 11.3 | 0.00 | 1.45 | 0.05 | 92 | 1015.6 |
| 20260505084539 | 11 | 145 | 3.2 | 11.3 | 0.03 | 1.45 | 0.05 | 92 | 1015.7 |
| 20260505083039 | 11 | 130 | 4.8 | 12.9 | 0.03 | 1.45 | 0.05 | 92 | 1015.5 |
| 20260505081538 | 12 | 144 | 1.6 | 8.0 | 0.03 | 1.45 | 0.05 | 92 | 1015.5 |
| 20260505080034 | 12 | 107 | 1.6 | 8.0 | 0.05 | 1.45 | 0.05 | 92 | 1015.6 |
| 20260505074532 | 12 | 169 | 3.2 | 11.3 | 0.05 | 1.42 | 0.03 | 92 | 1015.8 |
| 20260505073034 | 12 | 150 | 1.6 | 6.4 | 0.08 | 1.42 | 0.03 | 93 | 1016.1 |
| 20260505071529 | 12 | 121 | 0.0 | 6.4 | 0.13 | 1.42 | 0.00 | 92 | 1016.0 |
| 20260505070029 | 12 | 159 | 0.0 | 4.8 | 0.20 | 1.42 | 0.00 | 93 | 1016.0 |
| 20260505064528 | 12 | 86 | 0.0 | 4.8 | 0.23 | 1.40 | 1.40 | 92 | 1016.1 |
| 20260505063026 | 12 | 115 | 0.0 | 4.8 | 0.25 | 1.37 | 1.37 | 92 | 1016.0 |
| 20260505061532 | 12 | 131 | 0.0 | 0.0 | 0.20 | 1.30 | 1.30 | 92 | 1015.9 |
| 20260505060024 | 12 | 85 | 0.0 | 0.0 | 0.15 | 1.22 | 1.22 | 92 | 1016.0 |
| 20260505054524 | 12 | 85 | 0.0 | 0.0 | 0.10 | 1.17 | 1.17 | 92 | 1016.1 |
| 20260505053025 | 12 | 72 | 0.0 | 0.0 | 0.15 | 1.12 | 1.12 | 92 | 1016.1 |
| 20260505051543 | 12 | 90 | 3.2 | 4.8 | 0.18 | 1.09 | 1.09 | 92 | 1015.8 |
| 20260505041519 | 12 | 64 | 0.0 | 0.0 | 0.28 | 0.89 | 0.89 | 91 | 1016.1 |
| 20260505040024 | 12 | 61 | 0.0 | 0.0 | 0.33 | 0.84 | 0.84 | 91 | 1016.2 |
| 20260505034519 | 12 | 86 | 0.0 | 0.0 | 0.33 | 0.81 | 0.81 | 91 | 1016.0 |
| 20260505033019 | 12 | 50 | 0.0 | 0.0 | 0.25 | 0.71 | 0.71 | 90 | 1016.1 |
| 20260505031517 | 12 | 72 | 0.0 | 3.2 | 0.18 | 0.61 | 0.61 | 90 | 1016.5 |
| 20260505030015 | 12 | 76 | 0.0 | 6.4 | 0.10 | 0.51 | 0.51 | 89 | 1016.2 |
| 20260505024517 | 12 | 74 | 3.2 | 11.3 | 0.10 | 0.46 | 0.46 | 88 | 1015.9 |
| 20260505023014 | 12 | 144 | 4.8 | 12.9 | 0.10 | 0.46 | 0.46 | 89 | 1014.8 |
| 20260505021514 | 12 | 117 | 4.8 | 12.9 | 0.10 | 0.43 | 0.43 | 89 | 1015.0 |
| 20260505020013 | 13 | 107 | 3.2 | 8.0 | 0.10 | 0.41 | 0.41 | 89 | 1015.2 |
| 20260505014512 | 13 | 84 | 1.6 | 4.8 | 0.05 | 0.36 | 0.36 | 89 | 1015.2 |
| 20260505013012 | 13 | 104 | 0.0 | 6.4 | 0.08 | 0.36 | 0.36 | 89 | 1015.1 |
| 20260505011515 | 13 | 130 | 1.6 | 4.8 | 0.08 | 0.33 | 0.33 | 89 | 1015.3 |
| 20260505010114 | 13 | 95 | 0.0 | 9.7 | 0.10 | 0.30 | 0.30 | 89 | 1015.5 |
| 20260505004511 | 13 | 147 | 0.0 | 11.3 | 0.13 | 0.30 | 0.30 | 89 | 1015.8 |
| 20260505003019 | 13 | 112 | 3.2 | 14.5 | 0.13 | 0.28 | 0.28 | 88 | 1015.8 |
| 20260505001509 | 13 | 62 | 4.8 | 12.9 | 0.15 | 0.25 | 0.25 | 89 | 1015.7 |
| 20260505000009 | 13 | 91 | 6.4 | 12.9 | 0.13 | 0.20 | 0.20 | 88 | 1015.7 |
| 20260504234509 | 13 | 104 | 0.0 | 16.1 | 0.10 | 0.18 | 0.18 | 88 | 1015.5 |
| 20260504233007 | 13 | 107 | 6.4 | 14.5 | 0.10 | 0.15 | 0.15 | 86 | 1015.6 |
| 20260504231506 | 14 | 137 | 4.8 | 12.9 | 0.08 | 0.10 | 0.10 | 86 | 1015.5 |